JCSAT-2B

Last updated on Sat Apr 04 2026 00:02:52 GMT+0000 (Coordinated Universal Time)

1 41471U 16028A 26093.64499027 .00000000 00000+0 00000+0 0 9993 2 41471 0.0194 195.3933 0000698 205.9369 176.8479 1.00268564 36387
UTC large
Height (km)
Speed (km/s)
/
Latitude / Longitude
Inclination (degrees)
Orbital Period (minutes)
Azimuth
Elevation
Range (km)
Doppler Factor

Next 0 passes for location: London (51.5072 / 0.1276)

Sorry there are no passes over London.